GW5247 Weather Reports


time (UTC)temp
C
wind
direction
speed
KPH
gust
KPH
rain 1hr
cm
rain 24hr
cm
rain mn
cm
humidity
%
barometer
mb
20260510183518 28 245 1.6 6.4 0.00 0.00 0.00 47 1015.2
20260510182517 28 252 3.2 8.0 0.00 0.00 0.00 46 1014.9
20260510181518 28 249 1.6 6.4 0.00 0.00 0.00 45 1014.9
20260510180538 28 229 1.6 6.4 0.00 0.00 0.00 48 1015.1
20260510175518 27 347 4.8 11.3 0.00 0.00 0.00 47 1014.8
20260510174518 27 1 6.4 12.9 0.00 0.00 0.00 48 1014.9
20260510173515 27 246 1.6 6.4 0.00 0.00 0.00 48 1014.8
20260510172515 27 339 3.2 8.0 0.00 0.00 0.00 49 1015.1
20260510171556 27 263 3.2 9.7 0.00 0.00 0.00 48 1015.2
20260510170516 27 257 4.8 8.0 0.00 0.00 0.00 48 1015.0
20260510165516 27 261 4.8 8.0 0.00 0.00 0.00 47 1015.0
20260510164516 27 279 3.2 8.0 0.00 0.00 0.00 50 1015.0
20260510163516 27 246 4.8 9.7 0.00 0.00 0.00 50 1015.1
20260510162516 26 342 3.2 9.7 0.00 0.00 0.00 53 1015.2
20260510161557 26 351 4.8 11.3 0.00 0.00 0.00 53 1015.2
20260510160537 26 177 3.2 8.0 0.00 0.00 0.00 55 1015.3
20260510155537 26 352 4.8 11.3 0.00 0.00 0.00 56 1015.4
20260510154517 25 350 4.8 11.3 0.00 0.00 0.00 57 1015.4
20260510153517 25 328 4.8 9.7 0.00 0.00 0.00 59 1015.6
20260510152518 25 289 3.2 11.3 0.00 0.00 0.00 59 1015.5
20260510151518 25 321 1.6 9.7 0.00 0.00 0.00 59 1015.3
20260510150518 25 2 3.2 8.0 0.00 0.00 0.00 60 1015.3
20260510145518 24 1 3.2 8.0 0.00 0.00 0.00 62 1015.4
20260510144515 24 339 3.2 9.7 0.00 0.00 0.00 65 1015.4
20260510143535 23 1 4.8 17.7 0.00 0.00 0.00 65 1015.3
20260510142515 23 343 4.8 14.5 0.00 0.00 0.00 66 1015.3
20260510141536 23 351 6.4 14.5 0.00 0.00 0.00 66 1015.3
20260510140515 23 358 3.2 9.7 0.00 0.00 0.00 68 1015.3
20260510135519 22 340 4.8 9.7 0.00 0.00 0.00 70 1015.4
20260510134519 22 260 1.6 6.4 0.00 0.00 0.00 74 1015.2
20260510133539 22 231 1.6 8.0 0.00 0.00 0.00 74 1015.2
20260510132517 21 255 1.6 8.0 0.00 0.00 0.00 77 1015.2
20260510131516 21 343 1.6 8.0 0.00 0.00 0.00 78 1015.2
20260510130517 21 245 1.6 6.4 0.00 0.00 0.00 80 1015.2
20260510125517 20 232 1.6 4.8 0.00 0.00 0.00 83 1015.0
20260510124517 19 92 1.6 4.8 0.00 0.00 0.00 86 1015.0
20260510123517 18 242 1.6 4.8 0.00 0.00 0.00 88 1015.0
20260510122538 18 340 1.6 4.8 0.00 0.00 0.00 94 1014.9
20260510121518 17 227 1.6 6.4 0.00 0.00 0.00 97 1014.9
20260510120518 17 295 1.6 3.2 0.00 0.00 0.00 98 1014.8
20260510115530 16 285 1.6 3.2 0.00 0.00 0.00 98 1014.8
20260510114530 16 48 0.0 3.2 0.00 0.00 0.00 98 1014.9
20260510113530 15 11 0.0 1.6 0.00 0.00 0.00 98 1014.8
20260510112515 15 21 1.6 1.6 0.00 0.00 0.00 98 1014.6
20260510111516 15 36 1.6 3.2 0.00 0.00 0.00 98 1014.5
20260510110516 15 343 0.0 1.6 0.00 0.00 0.00 98 1014.5
20260510105516 15 42 1.6 3.2 0.00 0.00 0.00 98 1014.2
20260510104516 15 37 0.0 3.2 0.00 0.00 0.00 98 1014.2
20260510103516 15 7 0.0 1.6 0.00 0.00 0.00 98 1014.1
20260510102516 15 45 0.0 3.2 0.00 0.00 0.00 98 1013.8
20260510101517 15 2 0.0 1.6 0.00 0.00 0.00 98 1013.6
20260510100537 15 357 1.6 3.2 0.00 0.00 0.00 98 1013.5
20260510095517 15 354 1.6 3.2 0.00 0.00 0.00 98 1013.5
20260510094517 15 322 0.0 3.2 0.00 0.00 0.00 98 1013.5
20260510093516 15 1 1.6 4.8 0.00 0.00 0.00 98 1013.4
20260510092516 15 340 1.6 4.8 0.00 0.00 0.00 98 1013.3
20260510091516 15 3 1.6 1.6 0.00 0.00 0.00 98 1013.2
20260510090517 15 16 0.0 3.2 0.00 0.00 0.00 98 1013.0
20260510085516 15 357 0.0 3.2 0.00 0.00 0.00 98 1012.9
20260510084516 15 343 1.6 3.2 0.00 0.00 0.00 98 1012.7
20260510083516 15 45 0.0 3.2 0.00 0.00 0.00 98 1012.6
20260510082515 15 8 1.6 3.2 0.00 0.00 0.00 98 1012.7
20260510081515 15 16 1.6 3.2 0.00 0.00 0.00 98 1012.7
20260510080516 15 21 1.6 3.2 0.00 0.00 0.00 98 1012.7
20260510075515 15 27 0.0 1.6 0.00 0.00 0.00 98 1012.6
20260510074516 15 23 0.0 1.6 0.00 0.00 0.00 98 1012.6
20260510073516 15 28 0.0 1.6 0.00 0.00 0.00 98 1012.6
20260510072516 15 59 0.0 3.2 0.00 0.00 0.00 98 1012.5
20260510071517 15 26 0.0 1.6 0.00 0.00 0.00 98 1012.5
20260510070516 15 100 0.0 1.6 0.00 0.00 0.00 98 1012.4
20260510065516 15 73 0.0 1.6 0.00 0.00 0.00 98 1012.7
20260510064517 15 24 0.0 1.6 0.00 0.00 0.00 98 1012.7
20260510063516 15 282 0.0 1.6 0.00 0.00 0.00 98 1012.6
20260510062517 15 53 0.0 3.2 0.00 0.00 0.00 98 1012.4
20260510061537 15 63 0.0 1.6 0.00 0.00 0.00 98 1012.4
20260510060537 15 33 0.0 1.6 0.00 0.00 0.00 98 1012.5
20260510055517 15 13 0.0 3.2 0.00 0.00 0.00 98 1012.6
20260510054538 15 5 0.0 1.6 0.00 0.00 0.00 98 1012.8
20260510053518 15 26 0.0 3.2 0.00 0.00 0.00 98 1012.8
20260510052538 15 70 0.0 1.6 0.00 0.00 0.00 97 1013.0
20260510051538 15 14 0.0 3.2 0.00 0.00 0.00 97 1013.2
20260510050515 16 20 0.0 3.2 0.00 0.00 0.00 97 1013.0
20260510045515 16 28 0.0 1.6 0.00 0.00 0.00 97 1013.2
20260510044515 16 35 0.0 1.6 0.00 0.00 0.00 97 1013.3
20260510043516 16 21 0.0 3.2 0.00 0.00 0.00 97 1013.2
20260510042516 16 28 0.0 3.2 0.00 0.00 0.00 97 1013.1
20260510041517 16 5 1.6 3.2 0.00 0.00 0.00 97 1013.1
20260510040516 16 19 0.0 1.6 0.00 0.00 0.00 97 1013.0
20260510035516 16 70 0.0 3.2 0.00 0.00 0.00 97 1012.9
20260510034517 16 22 0.0 3.2 0.00 0.00 0.00 97 1012.9
20260510033516 16 50 0.0 3.2 0.00 0.00 0.00 97 1012.8
20260510032537 16 346 0.0 4.8 0.00 0.00 0.00 97 1013.0
20260510031517 16 14 0.0 1.6 0.00 0.00 0.00 96 1012.8
20260510030517 16 5 0.0 3.2 0.00 0.00 0.00 96 1012.8
20260510025537 16 33 0.0 3.2 0.00 0.00 0.00 96 1012.8
20260510024518 16 345 0.0 1.6 0.00 0.00 0.00 96 1012.7
20260510023538 16 356 0.0 1.6 0.00 0.00 0.00 96 1012.7
20260510022516 16 349 0.0 1.6 0.00 0.00 0.00 96 1012.7
20260510021515 17 323 0.0 1.6 0.00 0.00 0.00 96 1012.6
20260510020516 16 357 1.6 4.8 0.00 0.00 0.00 95 1012.4
20260510015516 16 329 0.0 1.6 0.00 0.00 0.00 95 1012.6
20260510014516 17 348 0.0 1.6 0.00 0.00 0.00 95 1012.5
20260510013516 17 21 0.0 1.6 0.00 0.00 0.00 94 1012.2
20260510012516 17 345 0.0 1.6 0.00 0.00 0.00 93 1012.1
20260510011516 17 2 0.0 1.6 0.00 0.00 0.00 93 1011.8
20260510010517 17 351 0.0 1.6 0.00 0.00 0.00 92 1011.8
20260510005517 18 0.0 0.0 0.00 0.00 0.00 92 1011.8
20260510004517 18 0.0 0.0 0.00 0.00 0.00 90 1011.7
20260510003517 18 351 0.0 3.2 0.00 0.00 0.00 89 1011.6
20260510002518 19 0.0 0.0 0.00 0.00 0.00 88 1011.6
20260510001537 20 220 0.0 1.6 0.00 0.00 0.00 86 1011.7
20260510000518 20 0.0 0.0 0.00 0.00 0.00 83 1011.7
20260509235518 21 0.0 0.0 0.00 0.00 0.00 81 1011.6
20260509234538 21 271 0.0 1.6 0.00 0.00 0.00 79 1011.4
20260509233518 22 281 0.0 1.6 0.00 0.00 0.00 78 1011.2
20260509232535 22 250 0.0 3.2 0.00 0.00 0.00 77 1010.8
20260509231515 22 252 1.6 4.8 0.00 0.00 0.00 75 1010.7
20260509230516 22 273 0.0 3.2 0.00 0.00 0.00 75 1010.7
20260509225516 22 263 1.6 4.8 0.00 0.00 0.00 75 1010.6
20260509224516 22 258 1.6 4.8 0.00 0.00 0.00 74 1010.4
20260509223516 22 255 0.0 3.2 0.00 0.00 0.00 74 1010.7
20260509222516 22 252 1.6 4.8 0.00 0.00 0.00 74 1010.5
20260509221517 22 253 1.6 3.2 0.00 0.00 0.00 74 1010.7
20260509220517 22 256 1.6 4.8 0.00 0.00 0.00 74 1010.8
20260509215517 22 262 1.6 4.8 0.00 0.00 0.00 74 1010.5
20260509214517 22 259 3.2 8.0 0.00 0.00 0.00 73 1010.6
20260509213517 22 252 3.2 8.0 0.00 0.00 0.00 72 1010.3
20260509212517 22 254 3.2 6.4 0.00 0.00 0.00 73 1010.6
20260509211538 22 256 3.2 9.7 0.00 0.00 0.00 73 1010.4
20260509210538 22 255 3.2 8.0 0.00 0.00 0.00 73 1010.6
20260509205518 22 250 1.6 4.8 0.00 0.00 0.00 72 1010.3
20260509204538 22 254 1.6 6.4 0.00 0.00 0.00 73 1010.1
20260509203518 22 260 1.6 6.4 0.00 0.00 0.00 74 1010.5
20260509202518 22 265 1.6 6.4 0.00 0.00 0.00 73 1010.4
20260509201518 22 254 3.2 6.4 0.00 0.00 0.00 73 1010.7
20260509200516 22 261 1.6 6.4 0.00 0.00 0.00 73 1010.7
20260509195516 22 244 1.6 8.0 0.00 0.00 0.00 73 1010.7
20260509194515 21 263 1.6 6.4 0.00 0.00 0.00 73 1010.9
20260509193516 22 258 3.2 6.4 0.00 0.00 0.00 72 1011.1
20260509192516 22 244 1.6 8.0 0.00 0.00 0.00 70 1011.3
20260509191516 22 251 3.2 6.4 0.00 0.00 0.00 68 1011.2
20260509190517 23 223 3.2 8.0 0.00 0.00 0.00 66 1010.9
20260509185517 23 236 3.2 9.7 0.00 0.00 0.00 66 1010.4
20260509184517 22 247 3.2 8.0 0.00 0.00 0.00 68 1010.7